AFR35 LFKJ-EDDB

Flight info

Callsign AFR35
Flight time N/A
Altitude 34000
Route TORTU DCT GOLAS DCT NESTI DCT SOTOV T101 ANDEC/N0445F350 T101 BETOS/N0449F360 M726 MAH/N0445F350 DCT INPUD/N0449F360 Y102 UPALA M726 ANELA/N0444F350
Aircraft A321/M-SDE3FGHIRWY/LB1

Departure

Time N/A
Airport Ajaccio Napoléon Bonaparte airport (LFKJ)

Arrival

Time 2026-05-08 01:39
Airport Berlin Brandenburg Airport (EDDB)
Time Latitude Longitude Altitude Speed Heading
2026-05-07 23:57 44.24289 9.48422 32624 ft 498 kts 19°
2026-05-07 23:58 44.27447 9.50402 32878 ft 498 kts 19°
2026-05-07 23:58 44.30609 9.52385 33116 ft 498 kts 19°
2026-05-07 23:58 44.33771 9.54369 33353 ft 498 kts 19°
2026-05-07 23:58 44.36927 9.56349 33610 ft 498 kts 19°
2026-05-07 23:59 44.40084 9.58332 33830 ft 497 kts 19°
2026-05-07 23:59 44.43241 9.60319 34016 ft 498 kts 19°
2026-05-07 23:59 44.49500 9.64207 34050 ft 489 kts 18°
2026-05-08 00:00 44.55768 9.67851 34051 ft 487 kts 17°
2026-05-08 00:00 44.62031 9.71440 34049 ft 484 kts 17°
2026-05-08 00:01 44.68258 9.75085 34049 ft 484 kts 17°
2026-05-08 00:01 44.74430 9.78741 34035 ft 484 kts 18°
2026-05-08 00:02 44.80638 9.82433 34060 ft 483 kts 18°
2026-05-08 00:02 44.86827 9.86102 34058 ft 482 kts 18°
2026-05-08 00:03 44.92999 9.89768 34052 ft 481 kts 18°
2026-05-08 00:03 44.99158 9.93446 34055 ft 480 kts 18°
2026-05-08 00:04 45.05308 9.97124 34045 ft 479 kts 18°
2026-05-08 00:04 45.11438 10.00792 34034 ft 478 kts 18°
2026-05-08 00:05 45.17563 10.04470 34029 ft 477 kts 17°
2026-05-08 00:05 45.23678 10.08139 34027 ft 477 kts 18°
2026-05-08 00:06 45.29785 10.11823 34013 ft 477 kts 18°
2026-05-08 00:06 45.35891 10.15519 34035 ft 476 kts 18°
2026-05-08 00:07 45.41990 10.19214 34027 ft 475 kts 18°
2026-05-08 00:07 45.48074 10.22905 34024 ft 474 kts 18°
2026-05-08 00:08 45.54093 10.26574 34037 ft 473 kts 18°
2026-05-08 00:08 45.60142 10.30263 34036 ft 472 kts 18°
2026-05-08 00:09 45.66173 10.33949 34059 ft 471 kts 18°
2026-05-08 00:09 45.72203 10.37643 34100 ft 471 kts 18°
2026-05-08 00:10 45.78210 10.41344 34093 ft 469 kts 18°
2026-05-08 00:10 45.84186 10.45117 34088 ft 470 kts 20°
2026-05-08 00:11 45.90105 10.49129 34120 ft 470 kts 21°
2026-05-08 00:11 45.95996 10.53203 34113 ft 469 kts 20°
2026-05-08 00:12 46.01887 10.57211 34115 ft 468 kts 20°
2026-05-08 00:12 46.07776 10.61191 34124 ft 468 kts 20°
2026-05-08 00:13 46.13666 10.65189 34117 ft 467 kts 20°
2026-05-08 00:13 46.19513 10.69167 34123 ft 467 kts 20°
2026-05-08 00:14 46.25385 10.73172 34126 ft 467 kts 20°
2026-05-08 00:14 46.30273 10.76529 34126 ft 467 kts 20°
2026-05-08 00:15 46.36145 10.80565 34123 ft 467 kts 20°
2026-05-08 00:15 46.42004 10.84596 34104 ft 467 kts 20°
2026-05-08 00:16 46.47877 10.88641 34130 ft 467 kts 21°
2026-05-08 00:16 46.53731 10.92685 34120 ft 465 kts 21°
2026-05-08 00:17 46.59569 10.96730 34118 ft 465 kts 21°
2026-05-08 00:17 46.65400 11.00774 34135 ft 464 kts 21°
2026-05-08 00:18 46.71221 11.04818 34130 ft 463 kts 21°
2026-05-08 00:18 46.77020 11.08872 34122 ft 462 kts 21°
2026-05-08 00:19 46.82818 11.12937 34117 ft 461 kts 21°
2026-05-08 00:19 46.88596 11.16984 34130 ft 461 kts 21°
2026-05-08 00:20 46.94513 11.20427 34121 ft 453 kts
2026-05-08 00:20 47.00691 11.21472 34111 ft 444 kts 357°
2026-05-08 00:21 47.06873 11.21880 34117 ft 445 kts 357°
2026-05-08 00:21 47.13062 11.22300 34118 ft 445 kts 357°
2026-05-08 00:22 47.19258 11.22723 34122 ft 445 kts 357°
2026-05-08 00:22 47.25223 11.23129 34141 ft 444 kts 357°
2026-05-08 00:23 47.31390 11.23546 34127 ft 443 kts 357°
2026-05-08 00:23 47.37568 11.23965 34128 ft 443 kts 357°
2026-05-08 00:24 47.43720 11.24376 34121 ft 442 kts 357°
2026-05-08 00:24 47.49868 11.24800 34131 ft 442 kts 357°
2026-05-08 00:25 47.55999 11.25201 34125 ft 440 kts 356°
2026-05-08 00:25 47.62109 11.25261 34116 ft 438 kts 354°
2026-05-08 00:26 47.68206 11.25131 34136 ft 438 kts 354°
2026-05-08 00:26 47.74316 11.25733 34124 ft 446 kts
2026-05-08 00:27 47.80251 11.28724 34118 ft 452 kts 15°
2026-05-08 00:27 47.86138 11.32017 34102 ft 451 kts 13°
2026-05-08 00:28 47.92194 11.33750 34114 ft 439 kts 358°
2026-05-08 00:28 47.98288 11.34252 34103 ft 439 kts 358°
2026-05-08 00:29 48.04225 11.34770 34099 ft 439 kts 358°
2026-05-08 00:29 48.10245 11.34337 34113 ft 431 kts 347°
2026-05-08 00:30 48.16189 11.33165 34106 ft 431 kts 347°
2026-05-08 00:30 48.22135 11.32021 34093 ft 431 kts 349°
2026-05-08 00:31 48.28183 11.32523 34094 ft 444 kts
2026-05-08 00:31 48.34072 11.35560 34088 ft 449 kts 16°
2026-05-08 00:32 48.39923 11.38876 34091 ft 449 kts 16°
2026-05-08 00:32 48.45773 11.42195 34090 ft 449 kts 16°
2026-05-08 00:33 48.51622 11.45517 34118 ft 449 kts 16°
2026-05-08 00:33 48.57471 11.48853 34127 ft 449 kts 16°
2026-05-08 00:34 48.63371 11.51725 34129 ft 442 kts
2026-05-08 00:34 48.69398 11.51867 34120 ft 428 kts 346°
2026-05-08 00:35 48.75021 11.49329 34127 ft 420 kts 334°
2026-05-08 00:35 48.80485 11.46148 34118 ft 420 kts 334°
2026-05-08 00:36 48.85954 11.42985 34113 ft 421 kts 334°
2026-05-08 00:36 48.91422 11.39801 34108 ft 421 kts 334°
2026-05-08 00:37 48.96723 11.36698 34126 ft 421 kts 335°
2026-05-08 00:38 49.04924 11.31873 34129 ft 421 kts 334°
2026-05-08 00:38 49.10401 11.28660 34136 ft 421 kts 334°
2026-05-08 00:39 49.15891 11.25484 34128 ft 423 kts 339°
2026-05-08 00:39 49.18794 11.24557 34128 ft 429 kts 350°
2026-05-08 00:39 49.21794 11.24494 34138 ft 435 kts
2026-05-08 00:39 49.24797 11.25322 34134 ft 442 kts 12°
2026-05-08 00:40 49.27674 11.27030 34129 ft 447 kts 23°
2026-05-08 00:40 49.33228 11.31385 34118 ft 448 kts 23°
2026-05-08 00:41 49.38788 11.35728 34130 ft 449 kts 23°
2026-05-08 00:41 49.44288 11.40052 34134 ft 449 kts 23°
2026-05-08 00:42 49.49656 11.44291 34131 ft 449 kts 23°
2026-05-08 00:42 49.55209 11.48688 34110 ft 448 kts 23°
2026-05-08 00:43 49.60751 11.53088 34104 ft 448 kts 23°
2026-05-08 00:43 49.66294 11.57503 34103 ft 448 kts 24°
2026-05-08 00:44 49.71830 11.61918 34096 ft 447 kts 24°
2026-05-08 00:44 49.77356 11.66343 34091 ft 447 kts 24°
2026-05-08 00:45 49.82855 11.70751 32951 ft 442 kts 24°
2026-05-08 00:45 49.85572 11.72940 32034 ft 432 kts 24°
2026-05-08 00:45 49.88213 11.75074 31547 ft 426 kts 24°
2026-05-08 00:45 49.90824 11.77183 31068 ft 421 kts 24°
2026-05-08 00:46 49.93406 11.79265 30609 ft 415 kts 24°
2026-05-08 00:46 49.95955 11.81317 30145 ft 410 kts 24°
2026-05-08 00:46 49.98474 11.83348 29588 ft 405 kts 25°
2026-05-08 00:46 50.00966 11.85358 29048 ft 400 kts 25°
2026-05-08 00:47 50.03421 11.87347 28519 ft 396 kts 25°
2026-05-08 00:47 50.05850 11.89318 28002 ft 392 kts 25°
2026-05-08 00:47 50.08255 11.91275 27491 ft 387 kts 25°
2026-05-08 00:47 50.10602 11.93185 26998 ft 384 kts 25°
2026-05-08 00:48 50.12984 11.95126 26496 ft 380 kts 25°
2026-05-08 00:48 50.15311 11.97024 26009 ft 376 kts 25°
2026-05-08 00:48 50.17592 11.98885 25539 ft 372 kts 25°
2026-05-08 00:48 50.19875 12.00748 25057 ft 369 kts 26°
2026-05-08 00:49 50.22140 12.02600 24604 ft 366 kts 26°
2026-05-08 00:49 50.24384 12.04436 24147 ft 363 kts 26°
2026-05-08 00:49 50.26608 12.06261 23706 ft 359 kts 26°
2026-05-08 00:49 50.28813 12.08070 23190 ft 356 kts 26°
2026-05-08 00:50 50.30992 12.09857 22661 ft 352 kts 26°
2026-05-08 00:50 50.33151 12.11628 22151 ft 348 kts 26°
2026-05-08 00:50 50.35277 12.13380 21645 ft 344 kts 26°
2026-05-08 00:50 50.37386 12.15118 21149 ft 340 kts 26°
2026-05-08 00:51 50.39466 12.16833 20660 ft 336 kts 26°
2026-05-08 00:51 50.41522 12.18526 20188 ft 332 kts 26°
2026-05-08 00:51 50.43556 12.20206 19703 ft 329 kts 26°
2026-05-08 00:51 50.45570 12.21872 19249 ft 325 kts 26°
2026-05-08 00:52 50.47565 12.23522 18791 ft 322 kts 26°
2026-05-08 00:52 50.49535 12.25148 18331 ft 319 kts 26°
2026-05-08 00:52 50.51489 12.26761 17825 ft 316 kts 26°
2026-05-08 00:52 50.53422 12.28363 17382 ft 313 kts 26°
2026-05-08 00:53 50.55342 12.29960 17115 ft 312 kts 26°
2026-05-08 00:53 50.57259 12.31558 16854 ft 311 kts 26°
2026-05-08 00:53 50.59167 12.33151 16593 ft 310 kts 26°
2026-05-08 00:53 50.61067 12.34739 16335 ft 308 kts 26°
2026-05-08 00:54 50.62958 12.36319 16083 ft 307 kts 26°
2026-05-08 00:54 50.64824 12.37877 15828 ft 306 kts 26°
2026-05-08 00:54 50.66705 12.39445 15575 ft 305 kts 25°
2026-05-08 00:54 50.68574 12.41009 15336 ft 303 kts 25°
2026-05-08 00:55 50.70431 12.42567 15080 ft 302 kts 25°
2026-05-08 00:55 50.72283 12.44120 14838 ft 301 kts 25°
2026-05-08 00:55 50.74127 12.45663 14657 ft 299 kts 25°
2026-05-08 00:55 50.75965 12.47204 14541 ft 299 kts 25°
2026-05-08 00:56 50.77806 12.48748 14429 ft 300 kts 25°
2026-05-08 00:56 50.79645 12.50295 14304 ft 298 kts 25°
2026-05-08 00:56 50.80857 12.51313 14225 ft 298 kts 25°
2026-05-08 00:56 50.82683 12.52848 14104 ft 297 kts 25°
2026-05-08 00:57 50.84507 12.54383 13985 ft 297 kts 25°
2026-05-08 00:57 50.86327 12.55918 13863 ft 296 kts 25°
2026-05-08 00:57 50.88142 12.57454 13724 ft 295 kts 25°
2026-05-08 00:57 50.89952 12.58987 13597 ft 294 kts 26°
2026-05-08 00:58 50.91753 12.60512 13462 ft 293 kts 26°
2026-05-08 00:58 50.93552 12.62033 13328 ft 292 kts 25°
2026-05-08 00:58 50.95349 12.63552 13200 ft 292 kts 25°
2026-05-08 00:58 50.97139 12.65066 13057 ft 291 kts 26°
2026-05-08 00:59 50.98927 12.66580 12931 ft 291 kts 26°
2026-05-08 00:59 51.00711 12.68096 12797 ft 290 kts 26°
2026-05-08 00:59 51.02493 12.69611 12664 ft 290 kts 26°
2026-05-08 00:59 51.04269 12.71123 12533 ft 289 kts 26°
2026-05-08 01:00 51.06041 12.72634 12409 ft 289 kts 26°
2026-05-08 01:00 51.07812 12.74145 12280 ft 288 kts 26°
2026-05-08 01:00 51.09581 12.75655 12148 ft 288 kts 26°
2026-05-08 01:00 51.11343 12.77159 12134 ft 287 kts 27°
2026-05-08 01:01 51.13099 12.78657 12132 ft 286 kts 27°
2026-05-08 01:01 51.14856 12.80156 12132 ft 286 kts 27°
2026-05-08 01:01 51.16610 12.81659 12129 ft 286 kts 27°
2026-05-08 01:01 51.18363 12.83166 12125 ft 286 kts 27°
2026-05-08 01:02 51.20116 12.84674 12127 ft 286 kts 27°
2026-05-08 01:02 51.21873 12.86183 12126 ft 286 kts 27°
2026-05-08 01:02 51.23628 12.87686 12125 ft 286 kts 27°
2026-05-08 01:02 51.25367 12.89176 12125 ft 286 kts 27°
2026-05-08 01:03 51.27122 12.90684 12124 ft 286 kts 27°
2026-05-08 01:03 51.28875 12.92194 12130 ft 286 kts 27°
2026-05-08 01:03 51.30628 12.93707 12130 ft 286 kts 27°
2026-05-08 01:03 51.32382 12.95220 12127 ft 286 kts 27°
2026-05-08 01:04 51.34130 12.96727 12126 ft 285 kts 28°
2026-05-08 01:04 51.35777 12.98151 12126 ft 284 kts 28°
2026-05-08 01:04 51.37518 12.99658 12129 ft 284 kts 28°
2026-05-08 01:04 51.39252 13.01159 12133 ft 284 kts 28°
2026-05-08 01:05 51.40990 13.02668 12135 ft 284 kts 28°
2026-05-08 01:05 51.42726 13.04177 12132 ft 284 kts 28°
2026-05-08 01:05 51.44464 13.05686 12135 ft 286 kts 28°
2026-05-08 01:05 51.46215 13.07207 12135 ft 287 kts 28°
2026-05-08 01:06 51.47969 13.08733 12129 ft 287 kts 28°
2026-05-08 01:06 51.49723 13.10261 12129 ft 287 kts 28°
2026-05-08 01:06 51.51476 13.11789 12129 ft 287 kts 28°
2026-05-08 01:06 51.53230 13.13319 12133 ft 287 kts 28°
2026-05-08 01:07 51.54987 13.14853 12139 ft 287 kts 28°
2026-05-08 01:07 51.56736 13.16377 12137 ft 286 kts 28°
2026-05-08 01:07 51.58483 13.17899 12141 ft 285 kts 28°
2026-05-08 01:07 51.60206 13.19402 12138 ft 285 kts 28°
2026-05-08 01:08 51.61949 13.20929 12137 ft 285 kts 28°
2026-05-08 01:08 51.63692 13.22459 12136 ft 285 kts 28°
2026-05-08 01:08 51.65431 13.23988 12137 ft 285 kts 29°
2026-05-08 01:08 51.67180 13.25522 12137 ft 285 kts 28°
2026-05-08 01:09 51.68924 13.27053 12138 ft 285 kts 29°
2026-05-08 01:09 51.70666 13.28588 12137 ft 285 kts 29°
2026-05-08 01:09 51.72409 13.30126 12141 ft 285 kts 29°
2026-05-08 01:09 51.74150 13.31663 12137 ft 285 kts 29°
2026-05-08 01:10 51.75887 13.33198 12142 ft 285 kts 29°
2026-05-08 01:10 51.77629 13.34736 12137 ft 286 kts 28°
2026-05-08 01:10 51.79376 13.36278 12137 ft 286 kts 28°
2026-05-08 01:10 51.81125 13.37822 12137 ft 286 kts 28°
2026-05-08 01:11 51.82873 13.39366 12137 ft 286 kts 28°
2026-05-08 01:11 51.84619 13.40913 12136 ft 286 kts 28°
2026-05-08 01:11 51.86363 13.42458 12136 ft 286 kts 28°
2026-05-08 01:11 51.88106 13.44007 12139 ft 286 kts 28°
2026-05-08 01:12 51.89850 13.45561 12139 ft 286 kts 28°
2026-05-08 01:12 51.91593 13.47115 12139 ft 286 kts 28°
2026-05-08 01:12 51.93339 13.48668 12139 ft 286 kts 28°
2026-05-08 01:12 51.95084 13.50221 12139 ft 286 kts 28°
2026-05-08 01:13 51.96830 13.51777 12143 ft 286 kts 28°
2026-05-08 01:13 51.98559 13.53321 12105 ft 278 kts 28°
2026-05-08 01:13 52.00233 13.54819 11821 ft 273 kts 28°
2026-05-08 01:13 52.01877 13.56318 11463 ft 270 kts 31°
2026-05-08 01:14 52.03404 13.58077 11099 ft 268 kts 36°
2026-05-08 01:14 52.04909 13.59860 10720 ft 267 kts 36°
2026-05-08 01:14 52.06402 13.61624 10357 ft 265 kts 35°
2026-05-08 01:14 52.07887 13.63376 10000 ft 263 kts 35°
2026-05-08 01:15 52.09361 13.65117 9591 ft 261 kts 36°
2026-05-08 01:15 52.10827 13.66850 9200 ft 259 kts 36°
2026-05-08 01:15 52.12278 13.68566 8817 ft 257 kts 36°
2026-05-08 01:15 52.13706 13.70257 8587 ft 249 kts 36°
2026-05-08 01:16 52.15076 13.71877 8408 ft 239 kts 36°
2026-05-08 01:16 52.16422 13.73470 8044 ft 239 kts 37°
2026-05-08 01:16 52.17744 13.75042 7693 ft 238 kts 37°
2026-05-08 01:16 52.19078 13.76631 7342 ft 237 kts 37°
2026-05-08 01:17 52.20425 13.78237 6990 ft 237 kts 37°
2026-05-08 01:17 52.21756 13.79821 6645 ft 236 kts 37°
2026-05-08 01:17 52.23093 13.81378 6285 ft 236 kts 32°
2026-05-08 01:17 52.24558 13.82476 6031 ft 232 kts 18°
2026-05-08 01:18 52.26094 13.82951 6007 ft 218 kts
2026-05-08 01:18 52.27604 13.82842 6013 ft 218 kts 352°
2026-05-08 01:18 52.29062 13.82186 6021 ft 219 kts 339°
2026-05-08 01:18 52.30512 13.81454 6011 ft 217 kts 355°
2026-05-08 01:19 52.32001 13.81589 6020 ft 215 kts 17°
2026-05-08 01:19 52.33341 13.82606 6016 ft 213 kts 38°
2026-05-08 01:19 52.34357 13.84335 6016 ft 211 kts 59°
2026-05-08 01:19 52.34968 13.86510 6018 ft 211 kts 70°
2026-05-08 01:20 52.35487 13.88760 6016 ft 212 kts 70°
2026-05-08 01:20 52.36013 13.91008 6025 ft 211 kts 70°
2026-05-08 01:20 52.36539 13.93256 6017 ft 212 kts 70°
2026-05-08 01:20 52.37065 13.95508 6026 ft 212 kts 69°
2026-05-08 01:21 52.37589 13.97756 6019 ft 210 kts 70°
2026-05-08 01:21 52.38093 13.99916 6020 ft 196 kts 70°
2026-05-08 01:21 52.38560 14.01932 6015 ft 183 kts 70°
2026-05-08 01:21 52.39008 14.03869 6023 ft 181 kts 70°
2026-05-08 01:22 52.39453 14.05794 6025 ft 181 kts 70°
2026-05-08 01:22 52.39899 14.07717 6023 ft 181 kts 69°
2026-05-08 01:22 52.40343 14.09639 6020 ft 180 kts 70°
2026-05-08 01:22 52.40787 14.11563 6024 ft 181 kts 69°
2026-05-08 01:23 52.41232 14.13490 6019 ft 181 kts 69°
2026-05-08 01:23 52.41677 14.15413 6025 ft 180 kts 69°
2026-05-08 01:23 52.42121 14.17332 6025 ft 181 kts 69°
2026-05-08 01:23 52.42565 14.19256 6030 ft 181 kts 69°
2026-05-08 01:24 52.43009 14.21181 6028 ft 181 kts 69°
2026-05-08 01:24 52.43452 14.23109 6024 ft 180 kts 69°
2026-05-08 01:24 52.43892 14.25027 6022 ft 180 kts 69°
2026-05-08 01:24 52.44334 14.26951 6013 ft 181 kts 69°
2026-05-08 01:25 52.44779 14.28883 6023 ft 181 kts 69°
2026-05-08 01:25 52.45220 14.30811 6019 ft 180 kts 69°
2026-05-08 01:25 52.45660 14.32736 6017 ft 180 kts 69°
2026-05-08 01:25 52.46101 14.34662 6015 ft 181 kts 69°
2026-05-08 01:26 52.46556 14.36585 6024 ft 182 kts 63°
2026-05-08 01:26 52.47329 14.38192 6022 ft 181 kts 38°
2026-05-08 01:26 52.48442 14.39118 6017 ft 181 kts 14°
2026-05-08 01:26 52.49699 14.39200 6025 ft 183 kts 349°
2026-05-08 01:27 52.50910 14.38530 6017 ft 185 kts 340°
2026-05-08 01:27 52.52113 14.37786 6018 ft 185 kts 340°
2026-05-08 01:27 52.53266 14.36866 6027 ft 186 kts 323°
2026-05-08 01:27 52.54093 14.35246 6015 ft 186 kts 297°
2026-05-08 01:28 52.54427 14.33221 5701 ft 185 kts 271°
2026-05-08 01:28 52.54201 14.31146 5278 ft 187 kts 248°
2026-05-08 01:28 52.53735 14.29173 4879 ft 188 kts 249°
2026-05-08 01:28 52.53270 14.27148 4492 ft 186 kts 249°
2026-05-08 01:29 52.52817 14.25165 4130 ft 185 kts 249°
2026-05-08 01:29 52.52373 14.23228 3763 ft 183 kts 250°
2026-05-08 01:29 52.51918 14.21255 3396 ft 182 kts 250°
2026-05-08 01:29 52.51472 14.19320 3052 ft 179 kts 250°
2026-05-08 01:30 52.51040 14.17430 3029 ft 180 kts 250°
2026-05-08 01:30 52.50596 14.15490 3028 ft 182 kts 250°
2026-05-08 01:30 52.50150 14.13552 3023 ft 182 kts 250°
2026-05-08 01:30 52.49701 14.11602 3023 ft 182 kts 250°
2026-05-08 01:31 52.49251 14.09657 3020 ft 182 kts 249°
2026-05-08 01:31 52.48789 14.07724 3022 ft 182 kts 249°
2026-05-08 01:31 52.48334 14.05784 3023 ft 182 kts 249°
2026-05-08 01:31 52.47884 14.03846 3032 ft 179 kts 249°
2026-05-08 01:32 52.47448 14.01965 3033 ft 174 kts 249°
2026-05-08 01:32 52.47023 14.00126 3020 ft 171 kts 249°
2026-05-08 01:32 52.46602 13.98306 3020 ft 170 kts 249°
2026-05-08 01:32 52.46182 13.96491 3019 ft 171 kts 250°
2026-05-08 01:33 52.45758 13.94664 3023 ft 171 kts 249°
2026-05-08 01:33 52.45337 13.92849 3021 ft 172 kts 249°
2026-05-08 01:33 52.44911 13.91015 3021 ft 171 kts 249°
2026-05-08 01:33 52.44487 13.89191 3019 ft 171 kts 250°
2026-05-08 01:34 52.44059 13.87350 3017 ft 172 kts 249°
2026-05-08 01:34 52.43632 13.85515 3018 ft 172 kts 249°
2026-05-08 01:34 52.43207 13.83691 3017 ft 171 kts 249°
2026-05-08 01:34 52.42780 13.81863 3016 ft 172 kts 249°
2026-05-08 01:35 52.42353 13.80032 3014 ft 171 kts 249°
2026-05-08 01:35 52.41928 13.78214 3014 ft 171 kts 249°
2026-05-08 01:35 52.41501 13.76387 3013 ft 172 kts 249°
2026-05-08 01:35 52.41073 13.74559 3014 ft 171 kts 249°
2026-05-08 01:36 52.40647 13.72740 3014 ft 171 kts 249°
2026-05-08 01:36 52.40222 13.70926 3011 ft 170 kts 249°
2026-05-08 01:36 52.39796 13.69111 2925 ft 172 kts 249°
2026-05-08 01:36 52.39360 13.67253 2495 ft 176 kts 249°
2026-05-08 01:37 52.38924 13.65397 2081 ft 178 kts 249°
2026-05-08 01:37 52.38470 13.63467 1662 ft 180 kts 249°
2026-05-08 01:37 52.38037 13.61629 1662 ft 170 kts 249°
2026-05-08 01:37 52.37610 13.59813 1495 ft 170 kts 249°
2026-05-08 01:38 52.37194 13.58049 1270 ft 168 kts 250°
2026-05-08 01:38 52.36774 13.56270 1022 ft 167 kts 250°
2026-05-08 01:38 52.36358 13.54508 782 ft 164 kts 250°
2026-05-08 01:38 52.35955 13.52744 393 ft 167 kts 250°
2026-05-08 01:39 52.35540 13.50999 157 ft 159 kts 249°
2026-05-08 01:39 52.35225 13.49636 154 ft 96 kts 251°
2026-05-08 01:39 52.35169 13.49090 155 ft 25 kts 315°
2026-05-08 01:39 52.35258 13.49064 154 ft 5 kts 360°
2026-05-08 01:40 52.35262 13.49065 154 ft 0 kts
2026-05-08 01:40 52.35289 13.49083 154 ft 12 kts 26°
2026-05-08 01:40 52.35396 13.49204 154 ft 23 kts 40°
2026-05-08 01:40 52.35483 13.49442 154 ft 26 kts 66°
2026-05-08 01:41 52.35558 13.49724 154 ft 28 kts 68°
2026-05-08 01:41 52.35631 13.50026 154 ft 29 kts 68°
2026-05-08 01:41 52.35707 13.50340 155 ft 30 kts 69°
2026-05-08 01:41 52.35791 13.50597 155 ft 22 kts 41°
2026-05-08 01:42 52.35926 13.50651 155 ft 20 kts 333°
2026-05-08 01:42 52.35953 13.50629 155 ft 2 kts 336°
2026-05-08 01:42 52.35975 13.50616 155 ft 9 kts 339°
2026-05-08 01:42 52.36084 13.50547 155 ft 21 kts 339°
2026-05-08 01:43 52.36207 13.50472 155 ft 16 kts 339°
2026-05-08 01:43 52.36314 13.50442 155 ft 15 kts 18°
2026-05-08 01:43 52.36392 13.50493 155 ft 8 kts 41°
2026-05-08 01:43 52.36418 13.50534 155 ft 5 kts 46°
2026-05-08 01:44 52.36424 13.50552 155 ft 0 kts 68°
2026-05-08 01:44 52.36424 13.50551 155 ft 0 kts 72°
2026-05-08 01:44 52.36425 13.50555 155 ft 0 kts 72°